Showing default

IONOSFERA-M 01, 61735

Orbit data source: Space-Track

IONOSFERA-M 01, 61735 is a payload satellite owned by VNIIEM (CIS) in SSO that was launched on Mon, 04 Nov 2024 UTC via a SOYUZ-2-1B launch vehicle from the Vostochny Cosmodrome (VOSTO). Payload-class satellites include a variety of spacecraft equipped with specific instruments for various scientific and technological missions. These include communications satellites like Starlink; space stations such as the ISS; scientific satellites like the Hubble; Earth observation satellites from companies like Planet Labs, Umbra, and HawkEye 360; GPS; miniature CubeSats for education and research; and military/defense satellites.

Loading next visibility...
Identifier
61735, 2024-199A
Orbit
SSO
Country
Flag of CISCIS
Related business
Manufacturer
VNIIEM
Mission
Operational Civil Science
Bus & Motor
IONOSFERA-M, Unknown motor
Mass
430 kg wet, 430 kg dry
Launch date (UTC)
2024-11-04 (2 years ago)
Launch vehicle
SOYUZ-2-1B
Launch site
Vostochny Cosmodrome (VOSTO)
Object type
Payload
Rocket body
Debris
Shape & HBR
Box + 1 Ant, 5.0 m
Radar Cross Section
2.359 m², Large (>1 m²)

Expand to show TLE details & history
Last TLE update: 9 hours ago

TLE from 9 hours ago
0 IONOSFERA-M 01
1 61735U 24199A   26264.25848915  .00000026  00000-0  31309-4 0  9997
2 61735  98.7005 136.3467 0000747 146.2524 213.8702 14.22769117141363
Epoch: 2026-09-21T06:12Z
TLE epoch observation values (Epoch: 2026-09-21T06:12:13.462Z)
Latitude
Longitude
43.14971°
Altitude
819.368 km
Speed
7.443 km/s
True Right ascension
09h 05m 23s
True Declination
0° 00' 00"
Sunlit
Object was in daylight at epoch
Visualization orbit readout
Latitude
Unknown
Longitude
Unknown
Altitude
Unknown
Speed
Unknown
Apparent Right ascension
Unknown
Apparent Declination
Unknown
Sunlit
N/A
Visualization observer readout
Local Sidereal Time
08:06:39
Azimuth
Unknown
Elevation
Unknown
Doppler factor
Unknown
Orbital elements
Apogee altitude
813.695 km
Perigee altitude
812.62 km
Semi-major axis
7,191.295 km
Eccentricity
0.00007
Inclination
98.7005°
RAAN
136.3467°
Arg. of periapsis
146.2524°
True anomaly
213.86543°
Mean anomaly
213.8702°
Eccentric anomaly
213.86781°
Mean motion
3.55904 °/min
Orbital period
101.15 mins
BSTAR
0.000031309
Loading maneuver chart data...
Computing Atmospheric mass density...
Loading historical data...
Loading historical data...
Loading historical data...
Loading historical data...
Loading historical data...
Loading historical data...
Loading historical data...

Documentation

Showing up to 5 results
|